Location: Warner Observatory
(35.1353°N, 89.5455°W)
Time: 03:30:06
(UTC-05:00)

Amateur Radio Satellites - All Passes

Search period start: 26 August 2016 03:00
Search period end: 27 August 2016 03:00
Location: Warner Observatory, 35.1353°N, 89.5455°W

Satellite Date Start Highest point End Downlink Frequencies (MHz)
Time Altitude Azimuth
Oscar 19 26 Aug 03:11:11 03:15:54 36° 290° (WNW) 03:20:36 437.125/150
MOZHAYETS 4 26 Aug 03:19:10 03:23:01 27° 70° (ENE) 03:26:50
KKS-1 26 Aug 03:27:50 03:31:35 27° 70° (ENE) 03:35:21 437.445
PHONESAT 2.4 26 Aug 03:32:07 03:35:03 53° 342° (NNW) 03:38:01 2401.200-2431.200
ITUPSAT 1 26 Aug 03:34:18 03:38:16 26° 263° (W) 03:42:14 437.325
RS-15 26 Aug 03:55:31 04:05:50 35° 317° (NW) 04:16:41 29.354- 29.394
AO-7 26 Aug 04:05:10 04:12:57 43° 101° (E) 04:20:41 29.400- 29.500
Gurwin Techsat 1B 26 Aug 04:06:14 04:10:29 25° 292° (WNW) 04:14:45 435.225
STARS 26 Aug 04:08:45 04:12:48 36° 72° (ENE) 04:16:53 437.465
ITAMSAT 1 26 Aug 04:20:41 04:25:46 60° 287° (WNW) 04:30:51 435.822/435.867
CUBESAT XI-V 26 Aug 04:34:21 04:37:47 21° 69° (ENE) 04:41:14 437.345
MOZHAYETS 4 26 Aug 04:56:26 05:00:05 24° 264° (W) 05:03:46
KKS-1 26 Aug 05:04:29 05:08:04 23° 264° (W) 05:11:40 437.445
Cosmos 2491 26 Aug 05:05:09 05:13:02 35° 74° (ENE) 05:20:52 435.465 / 435.565
PHONESAT 2.4 26 Aug 05:09:07 05:11:45 27° 359° (N) 05:14:23 2401.200-2431.200
AO-85 26 Aug 05:22:55 05:27:54 40° 114° (ESE) 05:32:41 145.980
STARS 26 Aug 05:46:23 05:49:15 17° 266° (W) 05:52:07 437.465
BRITE-PL 26 Aug 05:55:57 06:00:57 31° 95° (E) 06:05:49 437.365/2234.400
AO-7 26 Aug 05:58:05 06:05:33 39° 297° (WNW) 06:12:58 29.400- 29.500
CUBESAT XI-V 26 Aug 06:10:51 06:14:55 31° 263° (W) 06:19:03 437.345
YUBILEINY 26 Aug 06:15:20 06:23:37 47° 89° (E) 06:31:54 435.215
RS-15 26 Aug 06:17:51 06:23:49 14° 350° (N) 06:29:53 29.354- 29.394
HORYU 2 26 Aug 06:20:04 06:24:26 61° 285° (WNW) 06:28:46 437.375
Cubesat XI-IV 26 Aug 06:35:05 06:39:41 29° 97° (E) 06:44:15 437.490
PHONESAT 2.4 26 Aug 06:45:36 06:48:28 43° 15° (NNE) 06:51:22 2401.200-2431.200
STRAND 1 26 Aug 06:46:11 06:50:35 30° 69° (ENE) 06:54:59 437.568
CUTE-I 26 Aug 06:47:17 06:52:14 39° 99° (E) 06:57:09 437.470
NOAA 15 26 Aug 06:54:24 06:59:39 61° 101° (ESE) 07:04:53 137.62
Cosmos 2491 26 Aug 07:01:42 07:09:55 46° 272° (W) 07:18:09 435.465 / 435.565
AO-85 26 Aug 07:04:04 07:08:27 26° 308° (NW) 07:12:41 145.980
NOAA 18 26 Aug 07:11:43 07:17:08 59° 102° (ESE) 07:22:29 137.9125
GOMX 1 26 Aug 07:19:15 07:24:42 88° 106° (ESE) 07:29:51 467.674
BRITE-PL 26 Aug 07:34:16 07:39:17 33° 290° (WNW) 07:44:12 437.365/2234.400
DOVE 4 26 Aug 07:35:15 07:40:14 56° 100° (E) 07:44:53 437.250
Cosmos 2504 26 Aug 07:36:44 07:45:05 57° 91° (E) 07:52:55 435.465 / 435.565
LilacSat-2 26 Aug 07:38:25 07:41:58 41° 286° (WNW) 07:45:31 437.200
HO-68 26 Aug 08:00:57 08:06:54 28° 96° (E) 08:12:49 435.675
CANX-2 26 Aug 08:07:42 08:11:12 25° 96° (E) 08:14:42 2200.000
YUBILEINY 26 Aug 08:12:44 08:20:30 34° 286° (WNW) 08:28:19 435.215
CUTE 1.7 + AOD 2 26 Aug 08:14:09 08:17:40 25° 96° (E) 08:21:12 437.475
Cubesat XI-IV 26 Aug 08:15:05 08:19:39 30° 291° (WNW) 08:24:13 437.490
PRISM 26 Aug 08:16:09 08:19:25 24° 70° (ENE) 08:22:43 437.425
SO-50 26 Aug 08:20:32 08:23:28 16° 47° (NE) 08:26:20 436.795
PHONESAT 2.4 26 Aug 08:22:02 08:24:47 34° 210° (SSW) 08:27:33 2401.200-2431.200
STRAND 1 26 Aug 08:25:24 08:29:40 27° 264° (W) 08:33:58 437.568
AAUSAT CUBESAT 2 26 Aug 08:27:33 08:29:23 13° 93° (E) 08:31:11 437.432
CUTE-I 26 Aug 08:27:56 08:31:59 23° 293° (WNW) 08:36:03 437.470
CINEMA 3 26 Aug 08:29:01 08:33:27 53° 99° (E) 08:37:39 145.822/145.860
COMPASS 1 26 Aug 08:32:45 08:35:48 19° 95° (E) 08:38:50 437.405
RS-15 26 Aug 08:34:58 08:43:35 21° 28° (NNE) 08:52:09 29.354- 29.394
NOAA 15 26 Aug 08:35:53 08:38:52 15° 296° (WNW) 08:41:51 137.62
NOAA 18 26 Aug 08:53:57 08:57:14 16° 297° (WNW) 09:00:31 137.9125
CUBEBUG 2 26 Aug 08:58:58 09:02:37 28° 96° (E) 09:06:12 437.445
UWE-3 26 Aug 09:00:48 09:03:46 19° 94° (E) 09:06:41 435.000/436.395/437.385
GOMX 1 26 Aug 09:00:49 09:01:51 11° 299° (WNW) 09:02:53 467.674
ISS 26 Aug 09:08:54 09:12:10 76° 136° (SE) 09:15:27 145.825
ANTELSAT 26 Aug 09:13:13 09:14:13 11° 65° (ENE) 09:15:13 437.575/2403.000
DOVE 4 26 Aug 09:14:37 09:17:17 15° 296° (WNW) 09:19:54 437.250
ZACube-1 26 Aug 09:19:14 09:22:13 19° 95° (E) 09:25:10 437.345
SEEDS 26 Aug 09:24:51 09:29:01 61° 284° (WNW) 09:33:09 437.485
Cosmos 2504 26 Aug 09:31:54 09:38:44 26° 287° (WNW) 09:45:17 435.465 / 435.565
TIGRISAT 26 Aug 09:41:52 09:45:24 22° 69° (ENE) 09:48:52 435.000
CANX-2 26 Aug 09:43:37 09:46:55 22° 290° (WNW) 09:50:12 2200.000
HO-68 26 Aug 09:47:57 09:54:46 48° 291° (WNW) 10:01:32 435.675
CUTE 1.7 + AOD 2 26 Aug 09:50:06 09:53:21 22° 290° (WNW) 09:56:36 437.475
BEESAT 2 26 Aug 09:51:00 09:53:59 21° 111° (ESE) 09:57:00 435.950
PRISM 26 Aug 09:51:27 09:54:37 22° 264° (W) 09:57:49 437.425
SO-50 26 Aug 09:59:49 10:04:15 51° 245° (WSW) 10:08:33 436.795
AAUSAT CUBESAT 2 26 Aug 10:01:05 10:05:00 42° 286° (WNW) 10:08:56 437.432
CUSAT 1 26 Aug 10:02:32 10:08:11 30° 76° (ENE) 10:14:41 437.405
AIST 1 26 Aug 10:03:26 10:07:42 61° 279° (W) 10:12:02
COMPASS 1 26 Aug 10:07:46 10:11:19 28° 288° (WNW) 10:14:52 437.405
CINEMA 3 26 Aug 10:08:17 10:10:01 12° 295° (WNW) 10:11:43 145.822/145.860
UNISAT 6 26 Aug 10:08:53 10:13:19 46° 74° (ENE) 10:17:41 437.425
BEESAT 3 26 Aug 10:11:29 10:15:23 83° 117° (ESE) 10:19:19 437.485
DELFI C3 26 Aug 10:18:55 10:22:42 40° 99° (E) 10:26:28 145.870
HUMSAT D 26 Aug 10:20:15 10:23:06 18° 95° (E) 10:25:58 437.325/437.525
Oscar 11 26 Aug 10:28:40 10:32:53 57° 285° (WNW) 10:37:07 145.826/435.025
FUNcube-1 26 Aug 10:33:58 10:38:00 51° 285° (WNW) 10:42:00 145.935
CUBEBUG 2 26 Aug 10:36:02 10:39:02 19° 291° (WNW) 10:42:00 437.445
UWE-3 26 Aug 10:36:39 10:40:13 28° 289° (WNW) 10:43:44 435.000/436.395/437.385
GONETS M04 26 Aug 10:37:37 10:39:29 11° 76° (ENE) 10:41:20
DANDE 26 Aug 10:43:46 10:48:12 23° 78° (ENE) 10:53:29 436.750
ANTELSAT 26 Aug 10:45:44 10:50:21 67° 259° (W) 10:54:54 437.575/2403.000
RS-15 26 Aug 10:47:02 10:59:20 63° 56° (NE) 11:11:18 29.354- 29.394
ISS 26 Aug 10:47:13 10:48:59 14° 333° (NNW) 10:50:46 145.825
ZACube-1 26 Aug 10:54:58 10:58:29 27° 289° (WNW) 11:01:58 437.345
QB50P1 26 Aug 11:03:15 11:06:41 24° 70° (ENE) 11:10:08 145.935-145.965
BUGSAT 1 26 Aug 11:12:04 11:12:52 10° 65° (ENE) 11:13:41 437.445
POPSAT HIP 1 26 Aug 11:12:44 11:16:29 30° 71° (ENE) 11:20:14 437.405
TIGRISAT 26 Aug 11:17:46 11:21:52 31° 263° (W) 11:25:55 435.000
PCSat 26 Aug 11:21:20 11:25:30 23° 106° (ESE) 11:29:42 145.827
BEESAT 2 26 Aug 11:28:17 11:31:39 26° 306° (NW) 11:35:02 435.950
VELOX 1 26 Aug 11:38:27 11:39:44 11° 92° (E) 11:41:00 145.980
DUCHIFAT 1 26 Aug 11:41:51 11:46:03 61° 75° (ENE) 11:50:14 145.980
QB50P2 26 Aug 11:42:07 11:46:23 76° 76° (ENE) 11:50:40 145.880/145.840
CUBEBUG 1 26 Aug 11:43:19 11:46:10 17° 94° (E) 11:48:59 437.445
CUSAT 1 26 Aug 11:43:57 11:50:10 46° 266° (W) 11:57:27 437.405
POLYITAN 1 26 Aug 11:44:38 11:48:55 78° 78° (ENE) 11:53:13 437.675
UNISAT 6 26 Aug 11:47:43 11:50:12 14° 267° (W) 11:52:38 437.425
AIST 2 26 Aug 11:49:27 11:51:55 16° 109° (ESE) 11:54:25 435.215
NANOSAT C BR1 26 Aug 11:54:47 11:59:03 85° 255° (WSW) 12:03:20 145.865
HUMSAT D 26 Aug 11:55:14 11:58:42 27° 288° (WNW) 12:02:11 437.325/437.525
DELFI C3 26 Aug 11:55:20 11:57:09 13° 293° (WNW) 11:58:59 145.870
DX 1 26 Aug 12:00:23 12:02:29 13° 93° (E) 12:04:34 434.975-435.025
SPROUT 26 Aug 12:09:16 12:10:57 12° 92° (E) 12:12:38 437.525
ESTCUBE 1 26 Aug 12:09:41 12:14:09 55° 100° (E) 12:18:36 437.505/2401.250
JUGNU 26 Aug 12:11:16 12:14:41 16° 172° (S) 12:18:06 437.505
JAS-2 26 Aug 12:14:23 12:19:28 64° 74° (ENE) 12:24:48 435.910
AUBIESAT-1 26 Aug 12:17:43 12:21:46 90° 324° (NW) 12:25:30 437.475
M-CUBED/EXP-1 PRIME 26 Aug 12:22:04 12:26:09 62° 289° (WNW) 12:29:52 437.505
AISAT 26 Aug 12:24:39 12:28:55 43° 99° (E) 12:33:07 437.250
DANDE 26 Aug 12:25:32 12:30:51 47° 264° (W) 12:37:38 436.750
GONETS M04 26 Aug 12:25:58 12:34:38 75° 93° (E) 12:43:26
QB50P1 26 Aug 12:38:52 12:42:20 24° 264° (W) 12:45:48 145.935-145.965
Cosmos 2499 26 Aug 12:38:55 12:47:13 73° 94° (E) 12:54:54 435.465 / 435.565
UKube-1 26 Aug 12:42:18 12:46:12 32° 98° (E) 12:50:03 .
BUGSAT 1 26 Aug 12:43:31 12:47:42 58° 260° (W) 12:51:54 437.445
Oscar 19 26 Aug 12:46:19 12:50:26 25° 68° (ENE) 12:54:36 437.125/150
POPSAT HIP 1 26 Aug 12:49:13 12:52:15 19° 265° (W) 12:55:18 437.405
RS-15 26 Aug 13:00:28 13:11:05 36° 255° (WSW) 13:21:31 29.354- 29.394
PCSat 26 Aug 13:03:31 13:08:36 41° 302° (WNW) 13:13:43 145.827
50 SAT 26 Aug 13:09:39 13:13:08 43° 286° (WNW) 13:16:36 437.505
VELOX 1 26 Aug 13:12:06 13:16:28 55° 286° (WNW) 13:20:48 145.980
CUBEBUG 1 26 Aug 13:18:28 13:22:32 36° 288° (WNW) 13:26:34 437.445
AIST 2 26 Aug 13:26:15 13:30:03 37° 304° (NW) 13:33:55 435.215
DX 1 26 Aug 13:34:40 13:38:52 44° 287° (WNW) 13:43:01 434.975-435.025
SPROUT 26 Aug 13:43:01 13:47:07 46° 286° (WNW) 13:51:10 437.525
Gurwin Techsat 1B 26 Aug 13:43:47 13:48:44 41° 71° (ENE) 13:53:41 435.225
SRMSAT 26 Aug 13:46:09 13:48:42 13° 168° (SSE) 13:51:15 437.500
ESTCUBE 1 26 Aug 13:48:32 13:50:27 13° 295° (WNW) 13:52:21 437.505/2401.250
O/OREOS (USA 219) 26 Aug 13:58:10 14:02:24 43° 105° (ESE) 14:06:41 437.305
ITAMSAT 1 26 Aug 13:58:22 14:01:30 16° 64° (ENE) 14:04:39 435.822/435.867
JUGNU 26 Aug 13:59:10 14:02:58 18° 183° (S) 14:06:45 437.505
AO-85 26 Aug 13:59:45 14:01:40 13° 45° (NE) 14:03:32 145.980
AISAT 26 Aug 14:02:25 14:04:59 15° 294° (WNW) 14:07:33 437.250
JAS-2 26 Aug 14:03:38 14:05:09 11° 270° (W) 14:06:40 435.910
TISAT 1 26 Aug 14:07:21 14:11:32 63° 101° (E) 14:15:40 437.305
UKube-1 26 Aug 14:18:56 14:21:58 19° 292° (WNW) 14:25:00 .
Oscar 19 26 Aug 14:24:56 14:29:33 33° 263° (W) 14:34:14 437.125/150
GONETS M04 26 Aug 14:26:14 14:32:18 20° 292° (WNW) 14:38:26
SWISSCUBE 26 Aug 14:33:53 14:37:42 23° 96° (E) 14:41:29 437.505
Cosmos 2499 26 Aug 14:35:21 14:40:50 19° 289° (WNW) 14:46:07 435.465 / 435.565
BEESAT 26 Aug 14:50:50 14:55:06 32° 98° (E) 14:59:20 436.000
AO-7 26 Aug 15:00:32 15:08:19 45° 65° (ENE) 15:16:06 29.400- 29.500
Gurwin Techsat 1B 26 Aug 15:24:52 15:28:47 21° 265° (W) 15:32:43 435.225
SRMSAT 26 Aug 15:33:19 15:37:07 18° 178° (S) 15:40:55 437.500
ITAMSAT 1 26 Aug 15:35:26 15:40:29 54° 259° (W) 15:45:34 435.822/435.867
ITUPSAT 1 26 Aug 15:36:55 15:41:42 80° 284° (WNW) 15:46:28 437.325
AO-85 26 Aug 15:38:27 15:42:32 55° 244° (WSW) 15:46:20 145.980
O/OREOS (USA 219) 26 Aug 15:39:19 15:42:01 16° 301° (WNW) 15:44:43 437.305
ISS 26 Aug 15:39:39 15:42:20 22° 33° (NNE) 15:44:58 145.825
JUGNU 26 Aug 15:48:48 15:51:13 13° 192° (SSW) 15:53:38 437.505
SWISSCUBE 26 Aug 16:11:19 16:15:26 30° 290° (WNW) 16:19:34 437.505
BEESAT 26 Aug 16:29:00 16:32:40 22° 292° (WNW) 16:36:19 436.000
YUBILEINY 26 Aug 16:30:53 16:36:37 19° 67° (ENE) 16:42:18 435.215
MOZHAYETS 4 26 Aug 16:53:24 16:57:59 81° 283° (WNW) 17:02:34
AO-7 26 Aug 16:53:32 17:01:04 37° 261° (W) 17:08:38 29.400- 29.500
KKS-1 26 Aug 16:57:28 17:01:58 84° 104° (ESE) 17:06:24 437.445
BRITE-PL 26 Aug 17:04:06 17:07:44 22° 67° (ENE) 17:11:35 437.365/2234.400
HORYU 2 26 Aug 17:14:27 17:18:55 81° 75° (ENE) 17:23:22 437.375
ISS 26 Aug 17:15:51 17:18:49 31° 228° (SW) 17:21:44 145.825
SRMSAT 26 Aug 17:22:12 17:25:33 15° 188° (S) 17:28:54 437.500
Cosmos 2504 26 Aug 17:36:22 17:39:24 13° 66° (ENE) 17:42:25 435.465 / 435.565
STARS 26 Aug 17:37:05 17:41:28 72° 285° (WNW) 17:45:49 437.465
Cubesat XI-IV 26 Aug 17:53:53 17:58:43 36° 70° (ENE) 18:03:32 437.490
Cosmos 2491 26 Aug 18:02:05 18:10:09 44° 88° (E) 18:18:16 435.465 / 435.565
CUTE-I 26 Aug 18:05:52 18:10:56 47° 72° (ENE) 18:16:03 437.470
CUBESAT XI-V 26 Aug 18:09:47 18:14:30 80° 102° (ESE) 18:19:13 437.345
NOAA 15 26 Aug 18:11:13 18:16:24 70° 74° (ENE) 18:21:39 137.62
LilacSat-2 26 Aug 18:16:41 18:20:26 54° 76° (ENE) 18:24:12 437.200
GOMX 1 26 Aug 18:23:18 18:28:13 65° 75° (ENE) 18:33:28 467.674
YUBILEINY 26 Aug 18:25:35 18:34:22 80° 266° (W) 18:43:03 435.215
HO-68 26 Aug 18:28:33 18:32:28 16° 57° (ENE) 18:36:23 435.675
BEESAT 3 26 Aug 18:32:22 18:35:10 18° 51° (NE) 18:37:56 437.485
NOAA 18 26 Aug 18:34:41 18:40:14 83° 75° (ENE) 18:45:48 137.9125
DOVE 4 26 Aug 18:36:36 18:41:20 40° 72° (ENE) 18:46:15 437.250
BRITE-PL 26 Aug 18:41:39 18:45:55 34° 264° (W) 18:50:32 437.365/2234.400
CANX-2 26 Aug 18:59:04 19:00:50 12° 67° (ENE) 19:02:37 2200.000
STRAND 1 26 Aug 19:01:30 19:03:39 13° 92° (E) 19:05:47 437.568
CUTE 1.7 + AOD 2 26 Aug 19:05:21 19:07:12 13° 67° (ENE) 19:09:03 437.475
Cosmos 2504 26 Aug 19:26:30 19:33:45 87° 263° (W) 19:40:55 435.465 / 435.565
CINEMA 3 26 Aug 19:26:37 19:31:11 36° 72° (ENE) 19:35:45 145.822/145.860
Cubesat XI-IV 26 Aug 19:34:30 19:38:47 24° 264° (W) 19:43:06 437.490
CUTE-I 26 Aug 19:47:35 19:51:11 18° 266° (W) 19:54:47 437.470
BEESAT 2 26 Aug 19:48:23 19:52:22 62° 59° (ENE) 19:56:19 435.950
CUBEBUG 2 26 Aug 19:54:07 19:57:25 19° 69° (ENE) 20:00:40 437.445
NOAA 15 26 Aug 19:54:57 19:56:37 11° 269° (W) 19:58:17 137.62
UWE-3 26 Aug 19:55:48 19:57:45 13° 66° (ENE) 19:59:40 435.000/436.395/437.385
Cosmos 2491 26 Aug 19:59:16 20:07:00 35° 286° (WNW) 20:14:51 435.465 / 435.565
GOMX 1 26 Aug 20:04:53 20:06:48 12° 271° (W) 20:08:45 467.674
BEESAT 3 26 Aug 20:09:19 20:12:54 33° 247° (WSW) 20:16:27 437.485
HO-68 26 Aug 20:11:59 20:19:11 89° 254° (WSW) 20:26:26 435.675
SEEDS 26 Aug 20:13:02 20:17:06 57° 75° (ENE) 20:21:11 437.485
ZACube-1 26 Aug 20:13:21 20:15:02 12° 66° (ENE) 20:16:42 437.345
PCSat 26 Aug 20:13:39 20:15:19 11° 45° (NE) 20:16:59 145.827
AIST 1 26 Aug 20:14:16 20:17:48 23° 76° (ENE) 20:21:18
DOVE 4 26 Aug 20:15:20 20:19:07 21° 267° (W) 20:23:01 437.250
NOAA 18 26 Aug 20:20:49 20:21:26 10° 269° (W) 20:22:02 137.9125
YUBILEINY 26 Aug 20:26:43 20:29:36 12° 283° (WNW) 20:32:31 435.215
CANX-2 26 Aug 20:32:13 20:36:15 46° 261° (W) 20:40:19 2200.000
STRAND 1 26 Aug 20:38:08 20:43:10 62° 286° (WNW) 20:48:12 437.568
CUTE 1.7 + AOD 2 26 Aug 20:38:35 20:42:36 45° 261° (W) 20:46:39 437.475
AAUSAT CUBESAT 2 26 Aug 20:47:31 20:51:37 79° 76° (ENE) 20:55:43 437.432
COMPASS 1 26 Aug 20:54:27 20:58:32 64° 260° (W) 21:02:37 437.405
DELFI C3 26 Aug 21:02:54 21:05:13 15° 68° (ENE) 21:07:32 145.870
CINEMA 3 26 Aug 21:04:30 21:08:19 22° 266° (W) 21:12:09 145.822/145.860
Oscar 11 26 Aug 21:19:45 21:24:01 70° 77° (ENE) 21:28:19 145.826/435.025
Cosmos 2504 26 Aug 21:24:54 21:25:51 10° 282° (WNW) 21:26:49 435.465 / 435.565
FUNcube-1 26 Aug 21:25:29 21:29:57 77° 77° (ENE) 21:34:21 145.935
UWE-3 26 Aug 21:29:11 21:33:43 55° 260° (W) 21:38:10 435.000/436.395/437.385
CUBEBUG 2 26 Aug 21:29:23 21:33:44 37° 262° (W) 21:38:03 437.445
PRISM 26 Aug 21:34:54 21:39:03 61° 101° (E) 21:43:10 437.425
ZACube-1 26 Aug 21:46:25 21:50:50 55° 260° (W) 21:55:11 437.345
AIST 2 26 Aug 21:50:08 21:54:13 49° 58° (ENE) 21:58:16 435.215
AIST 1 26 Aug 21:51:46 21:55:16 24° 271° (W) 21:58:46
PCSat 26 Aug 21:54:07 21:59:34 80° 64° (ENE) 22:04:58 145.827
HO-68 26 Aug 22:04:44 22:07:40 13° 269° (W) 22:10:36 435.675
UNISAT 6 26 Aug 22:06:20 22:07:34 11° 92° (E) 22:08:47 437.425
Cosmos 2499 26 Aug 22:35:50 22:40:11 17° 69° (ENE) 22:44:33 435.465 / 435.565
DELFI C3 26 Aug 22:36:16 22:39:46 31° 263° (W) 22:43:18 145.870
GONETS M04 26 Aug 22:40:53 22:48:34 32° 73° (ENE) 22:56:09
ANTELSAT 26 Aug 22:41:07 22:44:53 30° 97° (E) 22:48:37 437.575/2403.000
HUMSAT D 26 Aug 22:42:22 22:46:31 64° 259° (W) 22:50:38 437.325/437.525
AUBIESAT-1 26 Aug 22:59:17 23:03:50 66° 71° (ENE) 23:08:27 437.475
M-CUBED/EXP-1 PRIME 26 Aug 23:03:55 23:08:33 89° 262° (W) 23:13:18 437.505
CUSAT 1 26 Aug 23:06:04 23:07:19 12° 86° (E) 23:08:39 437.405
ESTCUBE 1 26 Aug 23:06:10 23:10:10 33° 72° (ENE) 23:14:13 437.505/2401.250
TIGRISAT 26 Aug 23:12:00 23:16:15 69° 101° (E) 23:20:28 435.000
AISAT 26 Aug 23:19:07 23:22:48 26° 70° (ENE) 23:26:30 437.250
JAS-2 26 Aug 23:28:24 23:30:44 12° 91° (E) 23:33:08 435.910
AIST 2 26 Aug 23:30:34 23:32:13 12° 252° (WSW) 23:33:52 435.215
DUCHIFAT 1 26 Aug 23:31:17 23:32:53 12° 92° (E) 23:34:29 145.980
QB50P2 26 Aug 23:31:37 23:34:09 15° 94° (E) 23:36:39 145.880/145.840
POLYITAN 1 26 Aug 23:34:07 23:36:41 16° 94° (E) 23:39:12 437.675
UKube-1 26 Aug 23:34:25 23:37:25 19° 68° (ENE) 23:40:26 .
UNISAT 6 26 Aug 23:40:24 23:44:32 49° 286° (WNW) 23:48:38 437.425
PCSat 26 Aug 23:41:09 23:42:11 11° 258° (WSW) 23:43:13 145.827
NANOSAT C BR1 26 Aug 23:43:21 23:46:21 19° 95° (E) 23:49:18 145.865
50 SAT 26 Aug 23:43:29 23:46:52 42° 74° (ENE) 23:50:16 437.505
DANDE 26 Aug 23:53:46 23:54:32 11° 91° (E) 23:55:17 436.750
VELOX 1 27 Aug 00:05:42 00:10:07 86° 81° (E) 00:14:36 145.980
SO-50 27 Aug 00:10:05 00:14:57 77° 299° (WNW) 00:19:48 436.795
CUBEBUG 1 27 Aug 00:10:30 00:14:50 67° 258° (WSW) 00:19:15 437.445
O/OREOS (USA 219) 27 Aug 00:11:05 00:15:33 50° 67° (ENE) 00:20:01 437.305
ANTELSAT 27 Aug 00:18:22 00:21:22 19° 291° (WNW) 00:24:20 437.575/2403.000
QB50P1 27 Aug 00:25:48 00:30:00 68° 100° (E) 00:34:11 145.935-145.965
DX 1 27 Aug 00:26:25 00:30:46 81° 258° (WSW) 00:35:10 434.975-435.025
Cosmos 2499 27 Aug 00:26:53 00:33:53 68° 267° (W) 00:40:59 435.465 / 435.565
BUGSAT 1 27 Aug 00:29:07 00:32:30 24° 96° (E) 00:35:48 437.445
SPROUT 27 Aug 00:32:42 00:37:00 85° 75° (ENE) 00:41:20 437.525
POPSAT HIP 1 27 Aug 00:35:42 00:39:56 89° 92° (E) 00:44:07 437.405
GONETS M04 27 Aug 00:37:10 00:45:34 50° 271° (W) 00:53:57
AUBIESAT-1 27 Aug 00:37:31 00:38:36 11° 264° (W) 00:39:41 437.475
ESTCUBE 1 27 Aug 00:43:55 00:47:02 18° 266° (W) 00:50:09 437.505/2401.250
CUSAT 1 27 Aug 00:47:38 00:49:08 13° 290° (WNW) 00:50:47 437.405
PHONESAT 2.4 27 Aug 00:50:11 00:51:20 12° 143° (SE) 00:52:29 2401.200-2431.200
AISAT 27 Aug 00:55:36 00:59:10 24° 264° (W) 01:02:47 437.250
TISAT 1 27 Aug 00:55:54 00:59:37 30° 71° (ENE) 01:03:20 437.305
Oscar 19 27 Aug 01:03:33 01:04:29 10° 91° (E) 01:05:24 437.125/150
DUCHIFAT 1 27 Aug 01:04:47 01:08:47 44° 286° (WNW) 01:12:44 145.980
RS-15 27 Aug 01:05:44 01:16:36 54° 110° (ESE) 01:28:03 29.354- 29.394
QB50P2 27 Aug 01:06:11 01:10:02 35° 288° (WNW) 01:13:51 145.880/145.840
POLYITAN 1 27 Aug 01:08:44 01:12:33 34° 288° (WNW) 01:16:21 437.675
JAS-2 27 Aug 01:09:20 01:16:16 81° 103° (ESE) 01:23:55 435.910
UKube-1 27 Aug 01:09:21 01:13:12 32° 262° (W) 01:17:05 .
NANOSAT C BR1 27 Aug 01:18:26 01:22:03 29° 289° (WNW) 01:25:40 145.865
SWISSCUBE 27 Aug 01:37:46 01:41:09 20° 67° (ENE) 01:44:32 437.505
O/OREOS (USA 219) 27 Aug 01:52:27 01:54:27 13° 262° (W) 01:56:28 437.305
BEESAT 27 Aug 01:54:21 01:58:17 26° 69° (ENE) 02:02:14 436.000
SO-50 27 Aug 01:55:28 01:56:11 10° 317° (NW) 01:56:56 436.795
Gurwin Techsat 1B 27 Aug 02:03:52 02:07:50 21° 95° (E) 02:11:47 435.225
BUGSAT 1 27 Aug 02:04:33 02:07:44 22° 290° (WNW) 02:10:51 437.445
PHONESAT 2.4 27 Aug 02:24:20 02:27:19 80° 157° (SSE) 02:30:19 2401.200-2431.200
TISAT 1 27 Aug 02:32:16 02:35:15 19° 265° (W) 02:38:15 437.305
Oscar 19 27 Aug 02:39:04 02:44:16 74° 285° (WNW) 02:49:26 437.125/150
ITUPSAT 1 27 Aug 02:40:14 02:44:59 82° 76° (ENE) 02:49:46 437.325
